Wind_Speed
10 10 10 11 13 14 14 14 14 15 15 15 15 16 17 18 18 19 19 20 20 21 21 21 22 22 22 21 22 21 21 22 22 23 23 24 24 25 26 26 27 28 29 29
9 9 10 11 11 12 13 13 14 15 15 15 16 16 18 19 19 19 20 20 21 21 22 22 21 21 21 22 22 22 22 23 24 24 24 25 25 26 27 28 28 29 30 31
9 10 10 10 11 11 11 12 13 14 15 16 16 17 19 19 20 20 20 21 22 22 21 21 22 22 22 22 22 22 22 23 24 25 25 25 26 27 29 29 28 29 29 30
8 9 9 10 10 11 11 13 14 14 14 15 16 15 18 19 18 19 20 21 22 22 23 23 23 23 23 23 23 23 23 24 25 26 26 26 27 28 28 28 27 28 29 30
7 8 8 9 10 10 12 12 13 14 15 15 16 16 16 18 18 19 20 21 22 23 23 23 23 23 23 23 22 22 23 24 25 25 26 27 27 28 28 29 29 29 30 29
7 7 9 10 11 11 11 10 11 12 13 13 15 16 16 18 19 20 21 22 22 23 23 23 23 23 23 23 22 23 24 24 24 25 26 27 28 28 29 29 28 28 29 29
7 8 9 10 11 10 10 10 9 10 11 12 16 17 17 18 19 19 20 21 21 22 22 23 23 23 23 24 24 24 24 24 25 26 27 27 27 28 28 28 28 28 28 29
8 9 10 10 11 11 11 10 10 12 13 14 17 17 17 17 18 18 19 20 21 21 21 22 22 23 23 24 24 24 25 26 26 27 27 28 27 27 26 27 26 27 26 26
10 11 11 11 12 12 12 13 13 14 15 15 16 17 17 17 18 18 19 20 21 21 22 22 23 23 23 23 24 25 26 27 27 28 28 27 26 24 25 25 24 25 25 25
11 12 12 12 13 13 14 15 15 14 15 16 16 17 18 19 19 19 20 20 21 21 22 22 23 24 24 24 24 25 26 27 27 27 26 26 24 23 23 23 23 23 23 22
11 12 12 14 14 15 16 16 16 16 17 16 16 17 19 20 19 19 20 20 20 21 22 22 23 23 24 24 24 25 26 26 26 25 23 23 22 22 22 22 22 22 21 20
13 13 13 14 15 15 16 16 17 17 17 18 18 18 19 19 19 19 20 20 20 21 21 22 22 22 22 23 24 25 24 24 23 23 21 21 21 21 20 20 19 19 19 19
15 14 14 14 15 15 16 16 17 17 18 19 18 19 20 20 20 20 20 20 20 20 20 21 21 21 22 22 23 22 22 22 21 21 19 20 19 18 18 18 18 18 18 18
16 16 15 14 15 16 17 16 17 17 18 18 19 19 20 21 21 20 20 20 19 20 20 20 19 19 20 20 20 20 19 19 19 18 17 16 16 15 16 16 16 16 16 16
17 17 17 16 16 17 16 16 17 18 18 18 18 19 19 20 20 19 19 19 19 19 19 19 18 18 18 18 18 17 17 16 15 15 14 14 14 14 14 14 14 14 14 14
19 18 17 18 17 17 17 17 17 18 17 18 18 18 18 19 18 18 18 17 17 18 18 18 17 16 16 16 15 14 14 13 12 12 12 12 12 12 12 12 13 12 12 12
19 18 18 18 18 18 18 17 17 17 17 17 18 17 17 17 16 16 16 16 17 17 16 16 16 15 14 13 13 12 12 11 11 11 11 11 11 10 11 11 11 11 11 11
19 18 18 18 18 19 17 17 17 16 16 17 17 16 16 15 14 15 15 16 16 15 15 14 14 13 11 11 10 10 10 9 10 10 10 10 10 10 10 10 10 10 10 10
18 18 18 18 18 18 17 17 16 16 15 16 15 14 14 13 13 13 14 14 14 13 13 12 11 11 10 10 9 10 9 9 9 9 9 9 9 9 9 9 10 10 10 9
18 17 18 18 18 17 16 15 14 15 14 14 12 12 12 12 12 13 13 12 12 12 11 11 10 10 9 9 8 8 7 7 7 8 8 7 7 8 9 9 9 9 9 9
18 17 17 16 16 16 14 13 12 12 12 10 10 10 10 11 11 11 11 11 11 11 10 9 8 8 7 7 6 6 6 6 6 6 7 7 7 8 9 9 9 9 9 8
18 17 16 16 16 15 12 11 11 11 10 9 9 9 9 9 9 9 10 10 9 9 8 7 7 6 6 6 5 5 4 5 5 6 7 7 7 7 8 8 8 8 8 9
18 17 16 16 15 13 12 11 10 10 9 9 8 8 7 8 8 8 8 8 8 8 7 7 6 6 5 5 4 4 4 4 4 5 6 6 6 6 7 7 8 8 8 9
18 18 17 16 14 12 11 10 9 8 7 7 7 7 6 7 6 6 6 7 7 7 6 6 5 4 4 4 3 4 4 3 4 4 5 5 6 6 6 6 7 8 8 9
19 18 17 16 14 13 11 10 8 8 7 6 6 6 6 5 5 5 5 5 6 6 5 5 4 4 4 3 3 3 4 4 4 4 4 5 5 5 5 6 7 8 9 9
19 18 17 16 14 13 11 9 8 7 6 5 4 4 4 4 4 4 4 4 5 5 5 5 4 4 3 3 2 3 4 4 4 4 5 5 5 5 5 5 6 7 8 8
Wind_Direction
176 184 196 205 209 218 224 232 239 247 249 251 255 259 263 268 272 274 276 279 284 284 282 285 287 287 288 290 291 290 290 290 290 290 288 287 286 286 286 286 286 285 284 283
185 197 204 209 215 223 230 237 244 250 254 257 260 265 271 273 274 276 278 278 280 284 283 284 287 287 288 291 290 289 290 290 288 288 289 288 287 287 287 286 286 285 284 283
198 213 213 217 223 229 237 239 244 254 259 261 265 271 272 273 273 275 277 278 280 283 284 284 287 289 290 291 291 290 290 290 289 289 289 288 289 289 289 289 287 285 284 285
217 224 224 224 230 235 243 243 251 258 261 265 266 269 272 273 274 275 276 277 278 279 281 284 287 288 288 290 290 291 293 294 294 293 291 291 291 290 291 291 290 288 286 285
228 226 224 229 235 241 245 251 257 261 263 265 268 268 272 275 277 279 278 278 278 279 281 283 285 287 288 288 289 289 292 293 293 291 290 291 290 291 293 291 289 289 288 286
237 239 236 239 245 248 253 260 266 270 272 275 273 271 276 280 281 282 279 278 280 281 282 284 285 285 286 288 289 288 288 290 291 291 291 291 292 292 292 292 291 290 289 288
251 252 251 248 248 252 257 263 276 283 280 278 278 278 279 281 282 282 281 282 282 282 283 284 284 285 286 288 289 289 288 290 292 294 295 293 291 292 292 293 292 291 290 291
249 254 255 252 248 254 259 259 261 268 272 275 284 285 282 283 284 283 284 285 284 284 285 285 284 285 287 288 289 288 289 293 294 295 295 293 293 293 293 294 294 293 294 294
248 250 255 252 252 255 261 264 264 270 276 278 280 285 286 284 285 284 285 287 286 285 285 284 284 285 287 287 287 288 289 292 294 296 296 296 294 294 294 295 296 297 297 297
251 255 258 257 257 260 264 268 271 272 275 278 283 288 289 288 288 288 288 290 289 287 285 285 285 285 286 286 288 289 290 291 294 296 296 295 294 294 295 297 297 298 299 299
255 258 262 262 263 266 269 269 271 272 271 275 280 282 286 291 291 290 289 290 290 288 288 288 287 288 288 288 289 289 290 291 293 295 295 295 294 293 295 297 298 301 300 301
258 259 262 266 268 269 270 272 273 276 279 280 280 284 287 290 292 291 291 291 292 292 292 290 289 288 289 289 290 289 289 290 291 293 294 296 295 293 295 298 300 302 302 303
261 262 265 274 277 273 274 274 273 274 277 280 282 284 288 290 292 292 292 294 294 296 295 294 290 288 289 290 290 287 286 288 291 292 293 295 295 296 299 302 303 303 304 304
263 263 264 267 272 276 278 277 275 274 279 280 281 283 287 290 291 292 292 293 294 296 297 300 297 293 291 291 291 291 289 291 292 292 293 294 294 298 301 304 306 307 306 306
264 265 266 269 272 275 277 278 278 277 278 279 281 284 289 290 291 292 293 294 295 298 300 302 300 297 295 295 295 296 296 296 293 295 295 296 298 299 303 305 306 308 308 310
266 266 268 271 274 276 276 278 280 279 280 282 284 286 289 291 291 292 294 294 295 298 301 302 302 300 298 296 297 298 299 301 301 304 304 305 302 301 305 308 308 311 314 316
266 265 267 270 274 275 277 278 280 279 280 284 286 289 291 292 292 294 295 294 297 299 299 300 302 302 299 299 299 297 299 301 303 309 310 306 307 308 310 312 317 321 321 321
264 262 266 269 272 274 278 279 280 280 281 284 286 288 289 292 295 298 299 299 300 301 301 301 301 302 300 302 301 299 302 304 307 309 313 313 311 312 313 318 320 324 325 320
262 262 265 268 272 276 279 280 281 281 282 284 287 288 288 292 296 300 302 304 304 306 307 306 304 301 300 302 301 299 300 306 311 312 314 318 317 318 323 325 324 323 323 323
261 263 265 266 270 276 280 279 279 282 284 285 289 290 290 293 297 301 306 308 310 311 312 311 309 305 302 300 299 298 300 305 311 314 317 318 322 324 329 332 330 329 331 331
260 261 261 265 270 275 277 278 279 283 285 288 292 295 295 293 296 303 307 309 311 312 315 317 316 314 313 308 302 303 302 306 313 318 321 322 323 325 332 335 336 337 338 339
257 258 257 261 267 272 275 277 279 280 280 284 291 298 299 297 299 306 310 312 315 317 321 325 323 324 325 321 312 308 309 312 318 328 330 330 330 335 343 348 350 350 348 347
250 251 254 256 261 265 268 272 274 276 274 280 288 295 298 302 302 306 312 315 318 322 322 323 324 327 332 332 328 319 321 322 325 334 340 343 341 341 345 350 354 355 356 358
248 247 248 250 255 258 263 268 270 272 273 277 284 293 302 306 306 308 316 321 324 326 327 329 333 335 337 336 338 337 331 333 335 338 347 353 354 354 357 1 3 3 2 0
241 244 246 249 250 254 257 260 263 263 265 271 280 295 301 306 311 319 326 334 340 340 340 344 348 347 348 354 357 356 355 350 346 346 351 356 355 358 1 6 6 6 7 6
238 240 241 243 245 249 250 249 254 257 257 263 275 294 305 305 309 324 331 338 351 357 357 1 9 12 16 14 12 10 14 10 6 3 356 0 10 10 4 2 2 1 2 3
Height
5850 5853 5855 5857 5860 5862 5864 5866 5868 5869 5869 5871 5871 5872 5872 5873 5873 5872 5872 5871 5869 5868 5867 5866 5864 5863 5862 5860 5858 5857 5855 5853 5851 5849 5848 5846 5844 5842 5840 5838 5836 5834 5832 5830
5852 5854 5855 5857 5859 5861 5863 5865 5866 5866 5867 5868 5868 5869 5869 5869 5869 5868 5867 5866 5865 5864 5862 5861 5859 5858 5857 5855 5853 5852 5849 5847 5845 5844 5842 5840 5838 5836 5834 5831 5828 5826 5824 5823
5852 5854 5854 5856 5858 5860 5861 5863 5863 5864 5864 5865 5866 5867 5866 5865 5865 5864 5863 5862 5861 5859 5858 5856 5855 5854 5852 5850 5849 5846 5844 5842 5840 5839 5836 5834 5832 5830 5827 5824 5821 5819 5817 5815
5851 5852 5853 5855 5857 5858 5859 5860 5861 5861 5862 5863 5863 5864 5863 5861 5860 5859 5858 5857 5856 5855 5853 5852 5850 5849 5847 5845 5843 5841 5839 5837 5835 5834 5831 5829 5826 5823 5820 5817 5815 5812 5810 5807
5850 5851 5852 5854 5855 5856 5857 5857 5858 5858 5859 5860 5859 5860 5860 5857 5856 5855 5854 5852 5851 5849 5848 5847 5845 5843 5841 5839 5837 5836 5834 5832 5830 5828 5825 5822 5819 5817 5814 5811 5808 5805 5802 5799
5850 5850 5851 5852 5853 5854 5854 5855 5855 5855 5856 5857 5856 5856 5856 5853 5852 5850 5848 5847 5845 5844 5842 5841 5840 5838 5836 5834 5832 5830 5829 5827 5824 5822 5819 5816 5813 5810 5807 5804 5801 5798 5795 5793
5849 5849 5849 5850 5851 5852 5852 5854 5855 5855 5855 5856 5852 5851 5851 5848 5847 5845 5843 5842 5840 5839 5837 5836 5834 5832 5830 5829 5827 5825 5823 5821 5819 5816 5812 5809 5806 5803 5800 5797 5794 5791 5788 5785
5848 5849 5848 5848 5849 5850 5850 5851 5854 5854 5854 5852 5848 5847 5846 5844 5842 5840 5838 5837 5835 5833 5832 5830 5828 5827 5825 5823 5821 5819 5817 5815 5812 5809 5806 5803 5799 5796 5793 5791 5787 5784 5781 5778
5847 5847 5846 5846 5846 5847 5847 5848 5848 5848 5847 5847 5846 5843 5841 5839 5837 5836 5834 5832 5830 5828 5826 5825 5823 5821 5819 5817 5815 5813 5811 5809 5806 5803 5799 5795 5792 5790 5787 5784 5781 5779 5775 5772
5843 5844 5844 5843 5844 5844 5844 5844 5844 5844 5843 5843 5842 5840 5838 5834 5833 5831 5829 5827 5825 5823 5821 5819 5817 5815 5813 5811 5809 5807 5805 5802 5799 5796 5792 5789 5786 5784 5781 5779 5776 5773 5770 5767
5840 5841 5841 5841 5840 5841 5841 5840 5839 5839 5839 5838 5838 5838 5833 5830 5828 5826 5824 5822 5820 5817 5815 5813 5811 5809 5807 5805 5803 5801 5798 5795 5793 5790 5786 5784 5781 5778 5776 5773 5771 5768 5765 5763
5837 5837 5838 5838 5837 5836 5836 5835 5835 5835 5834 5833 5832 5834 5827 5825 5823 5821 5819 5817 5814 5812 5810 5807 5805 5803 5801 5799 5797 5794 5792 5789 5786 5784 5781 5779 5776 5773 5771 5769 5766 5763 5761 5758
5833 5833 5834 5834 5835 5833 5831 5831 5830 5830 5829 5828 5827 5829 5822 5820 5818 5816 5814 5811 5809 5807 5804 5802 5799 5797 5795 5793 5791 5788 5785 5783 5781 5778 5776 5774 5771 5769 5767 5764 5762 5759 5757 5754
5828 5829 5830 5831 5830 5828 5827 5826 5825 5825 5824 5823 5822 5821 5818 5815 5813 5811 5809 5807 5804 5802 5799 5797 5794 5792 5790 5787 5785 5783 5781 5778 5776 5774 5771 5769 5767 5765 5763 5760 5758 5755 5753 5750
5823 5824 5824 5824 5823 5823 5822 5821 5820 5819 5819 5818 5817 5815 5813 5810 5808 5806 5804 5802 5800 5797 5794 5792 5789 5787 5785 5783 5780 5778 5776 5774 5772 5769 5767 5765 5763 5761 5759 5757 5755 5752 5750 5747
5817 5818 5819 5819 5818 5817 5817 5816 5816 5814 5813 5812 5811 5810 5808 5805 5803 5801 5799 5797 5795 5792 5790 5787 5785 5782 5780 5778 5776 5774 5772 5770 5768 5766 5764 5762 5760 5758 5756 5754 5752 5749 5747 5744
5812 5813 5814 5814 5814 5813 5812 5812 5811 5810 5809 5808 5806 5806 5803 5801 5799 5797 5795 5792 5790 5788 5785 5783 5780 5778 5776 5774 5772 5771 5769 5768 5766 5764 5762 5759 5757 5756 5753 5751 5749 5747 5744 5742
5807 5808 5808 5808 5809 5808 5810 5807 5806 5805 5804 5803 5801 5800 5798 5796 5794 5792 5790 5788 5786 5783 5781 5779 5776 5774 5772 5771 5769 5768 5766 5765 5763 5761 5759 5757 5755 5753 5751 5749 5747 5745 5742 5740
5802 5803 5803 5804 5803 5803 5804 5802 5801 5800 5799 5798 5797 5795 5794 5792 5790 5788 5786 5784 5782 5779 5777 5775 5772 5770 5769 5768 5766 5765 5764 5762 5761 5759 5757 5755 5754 5752 5750 5747 5745 5743 5741 5739
5797 5798 5799 5798 5798 5798 5800 5798 5797 5797 5795 5794 5792 5791 5790 5788 5787 5785 5783 5780 5778 5776 5774 5771 5769 5767 5766 5765 5764 5763 5762 5760 5759 5757 5756 5754 5752 5750 5748 5746 5744 5742 5740 5738
5792 5793 5793 5793 5793 5793 5794 5793 5793 5793 5792 5790 5789 5787 5786 5785 5784 5782 5780 5777 5775 5773 5771 5769 5767 5765 5764 5763 5762 5761 5760 5759 5757 5756 5754 5753 5751 5749 5747 5745 5743 5741 5739 5737
5787 5788 5788 5788 5789 5792 5790 5789 5789 5789 5787 5786 5785 5784 5783 5782 5780 5778 5777 5775 5773 5771 5769 5767 5766 5764 5763 5761 5760 5759 5758 5757 5756 5755 5753 5752 5750 5748 5746 5744 5742 5740 5738 5736
5781 5783 5783 5785 5787 5786 5785 5785 5784 5784 5783 5783 5782 5781 5780 5779 5777 5776 5774 5772 5771 5769 5767 5766 5764 5763 5761 5760 5759 5758 5757 5756 5755 5754 5752 5751 5749 5747 5746 5744 5742 5740 5738 5736
5776 5777 5778 5779 5781 5781 5781 5781 5781 5781 5780 5780 5779 5778 5777 5776 5775 5773 5772 5770 5769 5767 5766 5764 5763 5761 5760 5759 5758 5757 5756 5755 5754 5753 5751 5750 5749 5747 5745 5744 5742 5740 5738 5736
5770 5772 5773 5775 5777 5777 5777 5777 5777 5778 5777 5777 5776 5775 5774 5773 5772 5771 5770 5769 5767 5766 5764 5763 5762 5760 5759 5759 5758 5757 5756 5755 5753 5752 5751 5750 5748 5747 5745 5744 5742 5740 5738 5736
5765 5767 5769 5771 5772 5773 5774 5774 5774 5774 5774 5774 5774 5773 5772 5771 5770 5769 5769 5767 5766 5765 5763 5762 5761 5760 5759 5758 5757 5757 5756 5755 5753 5752 5751 5750 5748 5747 5746 5744 5742 5740 5739 5737